Marrakech, Morocco

6:55 PM WET on May 29, 2017 (GMT +0000)
Marrakech

Weather History for GMMX - May, 2013

Change the Weather History Date:

Friday, May 17, 2013

  Actual Average Record
Temperature  
Mean Temperature 62 °F -  
Max Temperature 72 °F 86 °F 107 °F (2012)
Min Temperature 52 °F 60 °F 52 °F (2013)
Degree Days  
Heating Degree Days 3    
Growing Degree Days 12 (Base 50)    
Moisture  
Dew Point 47 °F    
Average Humidity 59    
Maximum Humidity 82    
Minimum Humidity 29    
Precipitation  
Precipitation 0.00 in 0.02 in - ()
Sea Level Pressure  
Sea Level Pressure 29.93 in    
Wind  
Wind Speed 4 mph ()    
Max Wind Speed 17 mph    
Max Gust Speed -    
Visibility 6.2 miles    
Events      
Averages and records for this station are not official NWS values.
T = Trace of Precipitation, MM = Missing Value Source: Averaged Metar Reports

Daily Weather History Graph

Daily Weather History Graph

Search for Another Location

Airport or City:

Trip Planner

Search our weather history database for the weather conditions in past years. The results will help you decide how hot, cold, wet, or windy it might be!

Date:

Astronomy

May. 17, 2013 Rise Set
Actual Time 6:34 AM WEST 8:23 PM WEST
Civil Twilight 6:07 AM WEST 8:50 PM WEST
Nautical Twilight 5:35 AM WEST 9:22 PM WEST
Astronomical Twilight 5:00 AM WEST 9:56 PM WEST
Moon 12:43 PM WEST (5/17) 1:17 AM WEST (5/17)
Length of Visible Light 14h 42m
Length of Day
13h 48m
Waxing Crescent, 43% of the Moon is Illuminated
May 17
Waxing Crescent
May 18
First Quarter
May 25
Full
May 31
Last Quarter
Jun 8
New

Hourly Weather History & Observations

Time (WEST) Temp. Dew Point Humidity Pressure Visibility Wind Dir Wind Speed Gust Speed Precip Events Conditions
12:00 AM 57.2 °F 46.4 °F 67% 29.95 in 6.2 mi North 11.5 mph - N/A   Scattered Clouds
12:30 AM 57.2 °F 46.4 °F 67% 29.95 in 6.2 mi North 5.8 mph - N/A   Scattered Clouds
1:00 AM 56 °F 45 °F 58% 29.94 in 6 mi North 6.9 mph - -   Partly Cloudy
1:00 AM 55.4 °F 46.4 °F 72% 29.95 in 6.2 mi NNE 8.1 mph - N/A   Scattered Clouds
1:30 AM 55.4 °F 46.4 °F 72% 29.95 in 6.2 mi Variable 2.3 mph - N/A   Scattered Clouds
2:00 AM 55.4 °F 44.6 °F 67% 29.92 in 6.2 mi Calm Calm - N/A   Scattered Clouds
2:30 AM 55.4 °F 46.4 °F 72% 29.92 in 6.2 mi Calm Calm - N/A   Scattered Clouds
3:00 AM 55.4 °F 46.4 °F 72% 29.92 in 6.2 mi Calm Calm - N/A   Scattered Clouds
3:30 AM 55.4 °F 46.4 °F 72% 29.92 in 6.2 mi Calm Calm - N/A   Scattered Clouds
4:00 AM 54 °F 48 °F 74% 29.91 in 6 mi Calm Calm - -   Partly Cloudy
4:00 AM 53.6 °F 48.2 °F 82% 29.92 in 6.2 mi Calm Calm - N/A   Scattered Clouds
4:30 AM 53.6 °F 48.2 °F 82% 29.92 in 6.2 mi Calm Calm - N/A   Scattered Clouds
5:00 AM 53.6 °F 48.2 °F 82% 29.92 in 6.2 mi Calm Calm - N/A   Scattered Clouds
5:30 AM 55.4 °F 46.4 °F 72% 29.92 in 6.2 mi Calm Calm - N/A   Mostly Cloudy
6:00 AM 55.4 °F 46.4 °F 72% 29.92 in 6.2 mi Calm Calm - N/A   Mostly Cloudy
6:30 AM 55.4 °F 48.2 °F 77% 29.92 in 6.2 mi Calm Calm - N/A   Mostly Cloudy
7:00 AM 55 °F 48 °F 70% 29.91 in 6 mi Calm Calm - -   Mostly Cloudy
7:00 AM 55.4 °F 48.2 °F 77% 29.92 in 6.2 mi Calm Calm - N/A   Mostly Cloudy
7:30 AM 55.4 °F 48.2 °F 77% 29.92 in 6.2 mi Calm Calm - N/A   Mostly Cloudy
8:00 AM 55.4 °F 48.2 °F 77% 29.92 in 6.2 mi Calm Calm - N/A   Mostly Cloudy
8:30 AM 55.4 °F 48.2 °F 77% 29.92 in 6.2 mi Calm Calm - N/A   Mostly Cloudy
9:00 AM 57.2 °F 48.2 °F 72% 29.95 in 6.2 mi Calm Calm - N/A   Mostly Cloudy
9:30 AM 57.2 °F 48.2 °F 72% 29.95 in 6.2 mi Calm Calm - N/A   Mostly Cloudy
10:00 AM 58 °F 47 °F 56% 29.94 in 6 mi Calm Calm - -   Overcast
10:00 AM 57.2 °F 46.4 °F 67% 29.95 in 6.2 mi Calm Calm - N/A   Mostly Cloudy
10:30 AM 59.0 °F 46.4 °F 63% 29.95 in 6.2 mi Calm Calm - N/A   Mostly Cloudy
11:00 AM 60.8 °F 46.4 °F 59% 29.95 in 6.2 mi Variable 2.3 mph - N/A   Scattered Clouds
11:30 AM 62.6 °F 46.4 °F 55% 29.95 in 6.2 mi Calm Calm - N/A   Scattered Clouds
12:00 PM 62.6 °F 44.6 °F 52% 29.95 in 6.2 mi Calm Calm - N/A   Scattered Clouds
12:30 PM 62.6 °F 46.4 °F 55% 29.95 in 6.2 mi Calm Calm - N/A   Scattered Clouds
1:00 PM 64 °F 45 °F 38% 29.90 in 6 mi Calm Calm - -   Mostly Cloudy
1:00 PM 64.4 °F 44.6 °F 49% 29.92 in 6.2 mi Calm Calm - N/A   Scattered Clouds
1:30 PM 66.2 °F 44.6 °F 46% 29.92 in 6.2 mi Variable 2.3 mph - N/A   Scattered Clouds
2:00 PM 68.0 °F 44.6 °F 43% 29.92 in 6.2 mi NW 6.9 mph - N/A   Scattered Clouds
2:30 PM 68.0 °F 44.6 °F 43% 29.92 in 6.2 mi West 6.9 mph - N/A   Mostly Cloudy
3:00 PM 68.0 °F 46.4 °F 46% 29.92 in 6.2 mi West 6.9 mph - N/A   Mostly Cloudy
3:30 PM 68.0 °F 44.6 °F 43% 29.92 in 6.2 mi WSW 8.1 mph - N/A   Mostly Cloudy
4:00 PM 70 °F 45 °F 29% 29.85 in 6 mi WNW 6.9 mph - -   Mostly Cloudy
4:00 PM 69.8 °F 44.6 °F 40% 29.89 in 6.2 mi WNW 6.9 mph - N/A   Mostly Cloudy
4:30 PM 69.8 °F 44.6 °F 40% 29.89 in 6.2 mi WSW 6.9 mph - N/A   Mostly Cloudy
5:00 PM 71.6 °F 42.8 °F 35% 29.89 in 6.2 mi WSW 9.2 mph - N/A   Mostly Cloudy
5:30 PM 71.6 °F 42.8 °F 35% 29.89 in 6.2 mi Variable 2.3 mph - N/A   Mostly Cloudy
6:00 PM 71.6 °F 42.8 °F 35% 29.89 in 6.2 mi Variable 5.8 mph - N/A   Mostly Cloudy
6:30 PM 71.6 °F 42.8 °F 35% 29.89 in 6.2 mi WSW 9.2 mph - N/A   Mostly Cloudy
7:00 PM 71 °F 47 °F 30% 29.85 in 6 mi WNW 12.7 mph - -   Mostly Cloudy
7:00 PM 71.6 °F 46.4 °F 41% 29.89 in 6.2 mi WNW 12.7 mph - N/A   Mostly Cloudy
7:30 PM 69.8 °F 46.4 °F 43% 29.89 in 6.2 mi WNW 12.7 mph - N/A   Mostly Cloudy
8:00 PM 68.0 °F 48.2 °F 49% 29.92 in 6.2 mi WNW 15.0 mph - N/A   Mostly Cloudy
8:30 PM 66.2 °F 50.0 °F 56% 29.92 in 6.2 mi WNW 16.1 mph - N/A   Scattered Clouds
9:00 PM 64.4 °F 50.0 °F 59% 29.95 in 6.2 mi WNW 16.1 mph - N/A   Scattered Clouds
9:30 PM 62.6 °F 50.0 °F 63% 29.95 in 6.2 mi WNW 17.3 mph - N/A   Scattered Clouds
10:00 PM 61 °F 50 °F 57% 29.96 in 6 mi WNW 15.0 mph - -   Partly Cloudy
10:00 PM 60.8 °F 50.0 °F 68% 29.98 in 6.2 mi WNW 13.8 mph - N/A   Scattered Clouds
10:30 PM 60.8 °F 50.0 °F 68% 30.01 in 6.2 mi WNW 11.5 mph - N/A   Scattered Clouds
11:00 PM 60.8 °F 50.0 °F 68% 30.01 in 6.2 mi West 12.7 mph - N/A   Scattered Clouds
11:30 PM 60.8 °F 50.0 °F 68% 30.01 in 6.2 mi WNW 13.8 mph - N/A   Scattered Clouds